Weather History for KSUW - February, 2014

Change the Weather History Date:

Monday, February 24, 2014

  Actual Average Record
Temperature  
Mean Temperature 6 °F -  
Max Temperature 14 °F 28 °F 27 °F (2015)
Min Temperature -1 °F 10 °F -1 °F (2014)
Degree Days  
Heating Degree Days 58    
Moisture  
Dew Point -5 °F    
Average Humidity 60    
Maximum Humidity 74    
Minimum Humidity 48    
Precipitation  
Precipitation 0.00 in - - ()
Sea Level Pressure  
Sea Level Pressure 30.22 in    
Wind  
Wind Speed 10 mph (WNW)    
Max Wind Speed 16 mph    
Max Gust Speed 25 mph    
Visibility 10 miles    
Events      
Averages and records for this station are not official NWS values.
T = Trace of Precipitation, MM = Missing Value Source: NWS Daily Summary

Daily Weather History Graph

Daily Weather History Graph

Search for Another Location

Airport or City:

Trip Planner

Search our weather history database for the weather conditions in past years. The results will help you decide how hot, cold, wet, or windy it might be!

Date:

Astronomy

Feb. 24, 2014 Rise Set
Actual Time 6:56 AM CST 5:46 PM CST
Civil Twilight 6:26 AM CST 6:17 PM CST
Nautical Twilight 5:51 AM CST 6:52 PM CST
Astronomical Twilight 5:16 AM CST 7:27 PM CST
Moon 3:07 AM CST (2/24) 12:37 PM CST (2/24)
Length of Visible Light 11h 51m
Length of Day
10h 50m
Waning Crescent, 28% of the Moon is Illuminated
Feb 24
Waning Crescent
Mar 1
New
Mar 8
First Quarter
Mar 16
Full
Mar 23
Last Quarter

Hourly Weather History & Observations

Time (CST) Temp. Windchill Dew Point Humidity Pressure Visibility Wind Dir Wind Speed Gust Speed Precip Events Conditions
12:15 AM 6.3 °F -10.7 °F -2.2 °F 68% 30.16 in 10.0 mi WNW 13.8 mph 20.7 mph N/A   Clear
12:35 AM 5.9 °F -10.5 °F -2.4 °F 69% 30.17 in 10.0 mi WNW 12.7 mph 17.3 mph N/A   Clear
12:55 AM 5.4 °F -11.1 °F -2.4 °F 70% 30.17 in 10.0 mi WNW 12.7 mph 16.1 mph N/A   Clear
1:15 AM 5.0 °F -6.9 °F -2.9 °F 70% 30.17 in 10.0 mi West 6.9 mph 16.1 mph N/A   Clear
1:35 AM 4.8 °F -8.3 °F -3.1 °F 70% 30.17 in 10.0 mi West 8.1 mph - N/A   Clear
1:55 AM 4.3 °F -9.0 °F -3.6 °F 70% 30.17 in 10.0 mi West 8.1 mph - N/A   Clear
2:15 AM 3.9 °F -12.2 °F -3.8 °F 70% 30.18 in 10.0 mi West 11.5 mph - N/A   Clear
2:35 AM 3.7 °F -9.6 °F -4.0 °F 70% 30.18 in 10.0 mi West 8.1 mph - N/A   Scattered Clouds
2:55 AM 3.2 °F -10.3 °F -4.2 °F 71% 30.19 in 10.0 mi West 8.1 mph - N/A   Scattered Clouds
3:15 AM 2.7 °F -10.9 °F -4.9 °F 71% 30.19 in 10.0 mi West 8.1 mph - N/A   Mostly Cloudy
3:35 AM 2.3 °F -10.2 °F -5.1 °F 71% 30.19 in 10.0 mi West 6.9 mph 16.1 mph N/A   Mostly Cloudy
3:55 AM 2.1 °F -11.6 °F -5.3 °F 71% 30.19 in 10.0 mi West 8.1 mph 17.3 mph N/A   Scattered Clouds
4:15 AM 1.6 °F -12.2 °F -5.8 °F 71% 30.20 in 10.0 mi West 8.1 mph - N/A   Scattered Clouds
4:35 AM 1.4 °F -14.5 °F -5.8 °F 72% 30.21 in 10.0 mi West 10.4 mph - N/A   Scattered Clouds
4:55 AM 0.9 °F -14.2 °F -6.2 °F 72% 30.21 in 10.0 mi West 9.2 mph - N/A   Scattered Clouds
5:15 AM 0.7 °F -14.4 °F -6.5 °F 72% 30.21 in 10.0 mi West 9.2 mph - N/A   Scattered Clouds
5:35 AM -0.2 °F -14.4 °F -7.1 °F 73% 30.21 in 10.0 mi West 8.1 mph - N/A   Clear
5:55 AM -0.0 °F -14.2 °F -7.1 °F 72% 30.21 in 10.0 mi West 8.1 mph - N/A   Scattered Clouds
6:15 AM -0.4 °F -16.7 °F -7.2 °F 73% 30.22 in 10.0 mi West 10.4 mph - N/A   Scattered Clouds
6:35 AM -1.3 °F -15.7 °F -8.0 °F 73% 30.22 in 10.0 mi West 8.1 mph - N/A   Scattered Clouds
6:55 AM -0.9 °F -12.7 °F -7.6 °F 73% 30.23 in 10.0 mi West 5.8 mph - N/A   Scattered Clouds
7:15 AM -1.8 °F -13.7 °F -8.3 °F 74% 30.23 in 10.0 mi West 5.8 mph - N/A   Clear
7:35 AM -1.3 °F -11.4 °F -8.1 °F 73% 30.24 in 10.0 mi West 4.6 mph - N/A   Clear
7:55 AM -1.1 °F -12.9 °F -8.3 °F 72% 30.24 in 10.0 mi West 5.8 mph - N/A   Clear
8:15 AM -0.6 °F -16.9 °F -8.1 °F 70% 30.24 in 10.0 mi West 10.4 mph - N/A   Clear
8:35 AM -0.4 °F -14.7 °F -8.1 °F 70% 30.24 in 10.0 mi West 8.1 mph - N/A   Clear
8:55 AM 0.3 °F -15.8 °F -8.1 °F 68% 30.25 in 10.0 mi NW 10.4 mph - N/A   Clear
9:15 AM 0.9 °F -15.1 °F -8.1 °F 66% 30.25 in 10.0 mi WNW 10.4 mph - N/A   Clear
9:35 AM 1.8 °F -14.0 °F -7.8 °F 64% 30.25 in 10.0 mi NW 10.4 mph - N/A   Clear
9:55 AM 2.8 °F -12.7 °F -7.6 °F 62% 30.26 in 10.0 mi WNW 10.4 mph - N/A   Clear
10:15 AM 3.9 °F -9.4 °F -7.2 °F 60% 30.26 in 10.0 mi NW 8.1 mph - N/A   Clear
10:35 AM 4.8 °F -9.3 °F -6.9 °F 59% 30.26 in 10.0 mi WNW 9.2 mph - N/A   Clear
10:55 AM 5.7 °F -9.9 °F -6.2 °F 58% 30.26 in 10.0 mi West 11.5 mph 18.4 mph N/A   Clear
11:15 AM 6.3 °F -8.4 °F -6.2 °F 57% 30.25 in 10.0 mi West 10.4 mph - N/A   Clear
11:35 AM 6.8 °F -5.9 °F -6.0 °F 56% 30.25 in 10.0 mi WNW 8.1 mph - N/A   Clear
11:55 AM 8.4 °F -5.7 °F -4.7 °F 55% 30.25 in 10.0 mi West 10.4 mph - N/A   Clear
12:15 PM 9.1 °F -4.0 °F -4.9 °F 53% 30.24 in 10.0 mi West 9.2 mph - N/A   Clear
12:35 PM 10.2 °F -3.5 °F -4.0 °F 53% 30.24 in 10.0 mi West 10.4 mph - N/A   Clear
12:55 PM 11.3 °F -2.9 °F -3.6 °F 51% 30.24 in 10.0 mi West 11.5 mph - N/A   Clear
1:15 PM 11.5 °F -0.2 °F -3.6 °F 51% 30.23 in 10.0 mi West 8.1 mph - N/A   Clear
1:35 PM 12.7 °F 0.4 °F -2.7 °F 50% 30.23 in 10.0 mi West 9.2 mph - N/A   Clear
1:55 PM 13.1 °F 0.1 °F -2.0 °F 51% 30.23 in 10.0 mi WNW 10.4 mph - N/A   Clear
2:15 PM 14.0 °F 1.2 °F -1.5 °F 50% 30.23 in 10.0 mi WNW 10.4 mph - N/A   Clear
2:35 PM 14.4 °F 0.2 °F -2.0 °F 48% 30.23 in 10.0 mi WNW 12.7 mph 17.3 mph N/A   Clear
2:55 PM 14.5 °F 1.9 °F -1.3 °F 50% 30.22 in 10.0 mi NW 10.4 mph - N/A   Clear
3:15 PM 14.7 °F -0.5 °F -1.5 °F 49% 30.23 in 10.0 mi WNW 15.0 mph - N/A   Clear
3:35 PM 14.7 °F 2.1 °F -1.1 °F 50% 30.23 in 10.0 mi NW 10.4 mph 17.3 mph N/A   Clear
3:55 PM 14.9 °F 4.0 °F -1.7 °F 48% 30.22 in 10.0 mi WNW 8.1 mph - N/A   Clear
4:15 PM 14.5 °F 1.1 °F -1.5 °F 49% 30.22 in 10.0 mi West 11.5 mph - N/A   Clear
4:35 PM 14.5 °F 2.7 °F -1.8 °F 48% 30.22 in 10.0 mi WNW 9.2 mph - N/A   Clear
4:55 PM 13.3 °F 2.0 °F -2.2 °F 50% 30.22 in 10.0 mi WNW 8.1 mph - N/A   Clear
5:15 PM 12.0 °F 1.5 °F -2.6 °F 52% 30.22 in 10.0 mi WNW 6.9 mph - N/A   Clear
5:35 PM 11.7 °F 1.1 °F -2.7 °F 53% 30.22 in 10.0 mi WNW 6.9 mph - N/A   Scattered Clouds
5:55 PM 12.6 °F -0.6 °F -3.8 °F 48% 30.22 in 10.0 mi WNW 10.4 mph 19.6 mph N/A   Mostly Cloudy
6:15 PM 11.3 °F 1.9 °F -4.0 °F 50% 30.22 in 10.0 mi WNW 5.8 mph - N/A   Scattered Clouds
6:35 PM 10.9 °F -1.8 °F -3.5 °F 52% 30.22 in 10.0 mi WNW 9.2 mph - N/A   Mostly Cloudy
6:55 PM 11.7 °F 1.1 °F -4.0 °F 50% 30.23 in 10.0 mi West 6.9 mph - N/A   Mostly Cloudy
7:15 PM 11.5 °F -0.2 °F -4.0 °F 50% 30.23 in 10.0 mi WNW 8.1 mph - N/A   Overcast
7:35 PM 10.9 °F -0.8 °F -4.0 °F 51% 30.23 in 10.0 mi West 8.1 mph - N/A   Scattered Clouds
7:55 PM 10.4 °F 0.8 °F -4.0 °F 52% 30.23 in 10.0 mi WNW 5.8 mph - N/A   Mostly Cloudy
8:15 PM 10.8 °F -2.0 °F -4.0 °F 52% 30.23 in 10.0 mi WNW 9.2 mph - N/A   Scattered Clouds
8:35 PM 10.4 °F -4.8 °F -4.0 °F 52% 30.23 in 10.0 mi West 12.7 mph 17.3 mph N/A   Clear
8:55 PM 9.9 °F -4.7 °F -4.0 °F 54% 30.24 in 10.0 mi West 11.5 mph - N/A   Scattered Clouds
9:15 PM 9.0 °F -6.6 °F -4.5 °F 54% 30.25 in 10.0 mi WNW 12.7 mph - N/A   Scattered Clouds
9:35 PM 8.1 °F -3.2 °F -5.1 °F 55% 30.25 in 10.0 mi WNW 6.9 mph 12.7 mph N/A   Clear
9:55 PM 7.0 °F -11.0 °F -6.3 °F 55% 30.25 in 10.0 mi WNW 16.1 mph 20.7 mph N/A   Scattered Clouds
10:15 PM 6.1 °F -4.3 °F -6.7 °F 56% 30.25 in 10.0 mi West 5.8 mph - N/A   Scattered Clouds
10:35 PM 5.2 °F -11.4 °F -7.4 °F 56% 30.25 in 10.0 mi West 12.7 mph 19.6 mph N/A   Clear
10:55 PM 4.6 °F -12.0 °F -7.6 °F 57% 30.25 in 10.0 mi West 12.7 mph 18.4 mph N/A   Scattered Clouds
11:15 PM 4.1 °F -12.0 °F -7.8 °F 58% 30.25 in 10.0 mi WNW 11.5 mph - N/A   Scattered Clouds
11:35 PM 3.0 °F -14.8 °F -8.5 °F 59% 30.26 in 10.0 mi WNW 13.8 mph 25.3 mph N/A   Clear
11:55 PM 1.4 °F -17.6 °F -9.6 °F 60% 30.26 in 10.0 mi WNW 15.0 mph 20.7 mph N/A   Clear